Regional Weather Roundup
Issued by NWS Sterling, VA

Home | Current Version | Previous Version | Text Only | Print | Product List | Glossary Off
Versions: 1 2 3 4 5 6 7 8 9 10 11 12 13 14 15 16 17 18 19 20 21 22 23 24 25 26 27 28 29 30 31 32 33 34 35 36 37 38 39 40 41 42 43 44 45 46 47 48 49 50

111
ASUS41 KLWX 240410
RWRLWX

REGIONAL WEATHER ROUNDUP
NATIONAL WEATHER SERVICE BALTIMORE MD/WASHINGTON DC
1100 PM EST MON JAN 23 2017

Note: "FAIR" indicates few or no clouds below 12,000 feet
with no significant weather and/or obstructions to visibility.
 TC=TEMPERATURE CELSIUS

 * =Non NWS site. Station does not report precipitation (e.g. rain,
    snow, etc.), thunder, or fog.

DCZ001-MDZ009-015-VAZ040>042-051-053>054-240500-
WASHINGTON METRO

CITY           SKY/WX    TMP DP  RH WIND       PRES   REMARKS
WASHINGTON NAT LGT RAIN  40  38  93 N17       29.48R FOG
DULLES         LGT RAIN  36  34  92 N12       29.50S FOG     WCI  28
ANDREWS AFB    MIX PCPN  38  36  94 N15       29.44R WCI  29
FT BELVOIR     LGT RAIN  39  36  91 N9        29.48R
QUANTICO       CLOUDY    40  39  97 N13G24    29.49S
COLLEGE PARK*  CLOUDY    36  34  93 N9        29.47R WCI  29
LEESBURG*      LGT RAIN  37  37 100 N10G24    29.52S
GAITHERSBURG*  CLOUDY    36  32  87 N8        29.52S

$$

MDZ006>007-011-014-240500-
BALTIMORE METRO

CITY           SKY/WX    TMP DP  RH WIND       PRES   REMARKS
BWI AIRPORT    CLOUDY    38  36  92 N14G20    29.46S
MD SCIENCE CTR   N/A     40  33  76 MISG      29.47S
ANNAPOLIS      CLOUDY   N/A N/A N/A N15G29    29.43F
FORT MEADE*    CLOUDY    36  34  93 N5        29.49R

$$

MDZ012-015-019>023-240500-
MARYLAND EASTERN SHORE

CITY           SKY/WX    TMP DP  RH WIND       PRES   REMARKS
OCEAN CITY     CLOUDY    45  44  97 NE20G28   29.30F
SALISBURY      LGT RAIN  44  43  96 NE17G32   29.31S FOG
BAY BRIDGE AP* CLOUDY    41  36  81 N15G23    29.43S
CAMBRIDGE*     CLOUDY    39  37  93 N10G20    29.37R
EASTON*        CLOUDY    42  37  82 NE17G23   29.42S

$$

MDZ017>025-240500-
SOUTHERN MARYLAND

CITY           SKY/WX    TMP DP  RH WIND       PRES   REMARKS
PATUXENT RIVER LGT RAIN  40  39  97 N18       29.39R FOG
ST INIGOES     LGT RAIN  41  41 100 N8G21     29.37R FOG
LEONARDTOWN*   CLOUDY    37  36  93 N6G16     29.41S

$$

MDZ003>005-240500-
NORTH CENTRAL MARYLAND

CITY           SKY/WX    TMP DP  RH WIND       PRES   REMARKS
FREDERICK*     CLOUDY    36  36 100 N10G16    29.55S FOG     WCI  28
HAGERSTOWN APT CLOUDY    35  32  88 N12       29.53S WCI  27
WESTMINSTER*     N/A     34  34 100 N8        29.49S FOG     WCI  27

$$

MDZ501>502-240500-
WESTERN MARYLAND

CITY           SKY/WX    TMP DP  RH WIND       PRES   REMARKS
OAKLAND*         N/A     28  28 100 CALM      29.51S FOG
CUMBERLAND*    CLOUDY    36  36 100 CALM      29.62S

$$

VAZ025>031-240500-
SHENANDOAH VALLEY

CITY           SKY/WX    TMP DP  RH WIND       PRES   REMARKS
WINCHESTER*    CLOUDY    32  32 100 NW7       29.54F FOG
FRONT ROYAL*   CLOUDY    34  34 100 N5        29.54S
LURAY*         CLOUDY    34  34 100 CALM      29.54S
NEW MARKET*    CLOUDY    33  32  96 CALM      29.54S
STAUNTON*      CLOUDY    34  32  94 N7        29.55S
WAYNESBORO*    CLOUDY    33  32  96 N6        29.52S

$$

WVZ021-048>050-054>055-240500-
EASTERN WEST VIRGINIA PANHANDLE

CITY           SKY/WX    TMP DP  RH WIND       PRES   REMARKS
MARTINSBURG    CLOUDY    35  33  92 N8        29.54S WCI  29
PETERSBURG*    MIX PCPN  36  34  94 CALM      29.59S

$$

VAZ036>039-050-240500-
CENTRAL FOOTHILLS

CITY           SKY/WX    TMP DP  RH WIND       PRES   REMARKS
CHARLOTTESVILL CLOUDY    39  36  89 W5        29.50S
CULPEPER*      DRIZZLE   38  37  96 N12       29.52R
ORANGE*        RAIN      37  37 100 NW14G21   29.51S WCI  29
GORDONSVILLE*  CLOUDY    37  35  94 N7        29.49S FOG
WARRENTON*     CLOUDY    38  35  86 N12       29.50R

$$

VAZ055>057-240500-
NORTH AND CENTRAL PIEDMONT

CITY           SKY/WX    TMP DP  RH WIND       PRES   REMARKS
FREDERICKSBRG* DRIZZLE   39  39 100 N8G18     29.47S
STAFFORD*      DRIZZLE   37  37 100 N12       29.52R

$$

NCZ024-NYZ072-PAZ021-071-VAZ022-071-240500-
OTHER REGIONAL OBSERVATIONS

CITY           SKY/WX    TMP DP  RH WIND       PRES   REMARKS
NEW YORK CITY  RAIN      36  35  96 NE12G30   29.52F FOG     WCI  28
PHILADELPHIA   LGT RAIN  38  34  85 NE29G44   29.40F WCI  26
PITTSBURGH     DRIZZLE   35  35 100 NE7       29.61S FOG
ROANOKE        CLOUDY    40  36  86 NE10      29.55R
RICHMOND       LGT RAIN  40  39  97 N16G24    29.43R FOG
RALEIGH        CLOUDY    44  39  82 VRB6      29.47R

$$

ANZ530>537-240500-
MARINE OBSERVATIONS

STATION/POSITION TIME  TEMP    WIND        PRES
                       AIR SEA DIR/SP/G
                 (UTC) (F)     (DEG/KT/KT) (MB)
THOMAS PT LIGHT  0400   40 40   20/ 28/ 32   N/A
BALT KEY BRIDGE  0348   40     360/ 16/ 20  997.4S
COVE POINT       0348   39      10/ 17/ 23  995.8R
LEWISETTA        0348   41 45  350/ 13/ 17  994.7R
SOLOMONS ISLAND  0342   40 42  350/ 13/ 20   N/A
PINEY POINT      0348           10/ 17/ 18   N/A

$$





USA.gov is the U.S. government's official web portal to all federal, state and local government web resources and services.